Date String (YYYY-MM-DD hh:mm:ss) UTC,Instrument flags,absolute air pressure of the measurement (hPa),sample flow rate (lpm),inlet stack bypass flow (lpm),air temperature of the measurement (°C),ambient temperature measured by the external sensor (°C),aerosol sample conditioner tube jacket temperature (°C),OPC LED temperature (°C),internal box temperature (°C),relative humidity of the measurement (%),span deviation,mass concentration of particles derived from Lorenz-Mie calculation of OPC scattering (μg/m³),mass concentration of particles derived from Lorenz-Mie calculation of OPC scattering (μg/m³),mass concentration of particles derived from Lorenz-Mie calculation of OPC scattering (μg/m³)
DateTimeUTC,F1_M11,P_M11,Q1_M11,Q2_M11,T1_M11,T2_M11,T3_M11,T4_M11,T5_M11,U1_M11,ZSPAN_M11,X0_M11,X2_M11,X1_M11
2023-06-03 21:00:00,SystemResetWarning,0832.8,5.01,000.00,030.0,026.3,000.0,038.4,031.4,27.8,0000.0,0002.56,0001.52,0001.13
2023-06-03 21:01:00,SystemResetWarning,0832.8,4.99,000.00,030.0,026.7,000.0,038.4,031.4,28.3,0000.0,0002.43,0001.45,0001.13
2023-06-03 21:02:00,SystemResetWarning,0832.8,4.99,000.00,030.0,027.0,000.0,038.4,031.4,28.3,0000.0,0002.42,0001.44,0001.11
2023-06-03 21:03:00,SystemResetWarning,0832.8,5.00,000.00,030.0,027.3,000.0,038.4,031.4,28.6,0000.0,0002.40,0001.42,0001.11
2023-06-03 21:04:00,SystemResetWarning,0832.8,5.00,000.00,029.9,027.5,000.0,038.4,031.4,28.4,0000.0,0002.38,0001.40,0001.12
2023-06-03 21:05:00,SystemResetWarning,0832.8,4.99,000.00,029.9,027.7,000.0,038.4,031.5,29.3,0000.0,0002.49,0001.43,0001.14
2023-06-03 21:06:00,SystemResetWarning,0832.8,5.00,000.00,030.0,027.9,000.0,038.4,031.5,29.9,0000.0,0002.52,0001.46,0001.16
2023-06-03 21:07:00,SystemResetWarning,0832.8,5.00,000.00,030.0,028.0,000.0,038.4,031.5,29.8,0000.0,0003.26,0001.48,0001.18
2023-06-03 21:08:00,SystemResetWarning,0832.8,5.00,000.00,030.0,028.1,000.0,038.4,031.5,29.7,0000.0,0003.80,0001.57,0001.20
2023-06-03 21:09:00,SystemResetWarning,0832.9,5.01,000.00,030.0,028.2,000.0,038.4,031.6,28.5,0000.0,0003.78,0001.57,0001.22
2023-06-03 21:10:00,SystemResetWarning,0832.8,5.00,000.00,030.0,028.3,000.0,038.4,031.6,28.5,0000.0,0004.15,0001.57,0001.23
2023-06-03 21:11:00,SystemResetWarning,0832.8,5.01,000.00,030.0,028.4,000.0,038.4,031.6,28.1,0000.0,0004.83,0001.54,0001.23
2023-06-03 21:12:00,SystemResetWarning,0832.8,5.00,000.00,030.0,028.5,000.0,038.4,031.6,28.1,0000.0,0004.93,0001.59,0001.23
2023-06-03 21:13:00,SystemResetWarning,0832.7,5.00,000.00,030.0,028.5,000.0,038.4,031.7,29.0,0000.0,0004.91,0001.57,0001.23
2023-06-03 21:14:00,SystemResetWarning,0832.8,4.99,000.00,030.1,028.6,000.0,038.4,031.7,29.4,0000.0,0005.01,0001.62,0001.25
2023-06-03 21:15:00,SystemResetWarning,0832.8,5.00,000.00,030.1,028.6,000.0,038.4,031.7,30.6,0000.0,0005.08,0001.66,0001.27
2023-06-03 21:16:00,SystemResetWarning,0832.7,5.00,000.00,030.1,028.6,000.0,038.4,031.7,31.0,0000.0,0005.83,0001.70,0001.27
2023-06-03 21:17:00,SystemResetWarning,0832.8,5.00,000.00,030.1,028.7,000.0,038.4,031.8,30.0,0000.0,0005.96,0001.74,0001.27
2023-06-03 21:18:00,SystemResetWarning,0832.7,5.00,000.00,030.1,028.7,000.0,038.4,031.8,29.1,0000.0,0005.83,0001.77,0001.26
2023-06-03 21:19:00,SystemResetWarning,0832.7,5.01,000.00,030.2,028.7,000.0,038.4,031.8,28.7,0000.0,0005.78,0001.72,0001.25
2023-06-03 21:20:00,SystemResetWarning,0832.7,5.00,000.00,030.2,028.8,000.0,038.5,031.8,29.4,0000.0,0005.69,0001.73,0001.23
2023-06-03 21:21:00,SystemResetWarning,0832.7,5.00,000.00,030.2,028.8,000.0,038.5,031.8,28.6,0000.0,0005.62,0001.77,0001.22
2023-06-03 21:22:00,SystemResetWarning,0832.7,5.00,000.00,030.2,028.8,000.0,038.5,031.9,27.9,0000.0,0004.71,0001.81,0001.22
2023-06-03 21:23:00,SystemResetWarning,0832.7,4.99,000.00,030.2,028.8,000.0,038.5,031.9,27.6,0000.0,0005.33,0001.80,0001.22
2023-06-03 21:24:00,SystemResetWarning,0832.7,5.00,000.00,030.2,028.8,000.0,038.5,031.9,27.1,0000.0,0005.56,0001.89,0001.21
2023-06-03 21:25:00,SystemResetWarning,0832.7,5.00,000.00,030.3,028.9,000.0,038.5,031.9,26.7,0000.0,0005.49,0001.85,0001.18
2023-06-03 21:26:00,SystemResetWarning,0832.6,4.99,000.00,030.3,028.9,000.0,038.5,031.9,28.2,0000.0,0005.65,0001.85,0001.15
2023-06-03 21:27:00,SystemResetWarning,0832.6,4.99,000.00,030.3,028.9,000.0,038.6,031.9,29.5,0000.0,0005.13,0001.86,0001.14
2023-06-03 21:28:00,SystemResetWarning,0832.6,4.99,000.00,030.3,028.9,000.0,038.6,032.0,28.5,0000.0,0004.95,0001.85,0001.12
2023-06-03 21:29:00,SystemResetWarning,0832.6,5.00,000.00,030.3,028.9,000.0,038.6,032.0,28.4,0000.0,0004.74,0001.84,0001.11
2023-06-03 21:30:00,SystemResetWarning,0832.6,5.01,000.00,030.4,028.9,000.0,038.6,032.0,27.4,0000.0,0004.98,0001.88,0001.10
2023-06-03 21:31:00,SystemResetWarning,0832.6,5.00,000.00,030.4,029.0,000.0,038.6,032.0,27.8,0000.0,0005.18,0001.86,0001.08
2023-06-03 21:32:00,SystemResetWarning,0832.6,5.00,000.00,030.4,029.0,000.0,038.6,032.0,27.8,0000.0,0005.13,0001.82,0001.06
2023-06-03 21:33:00,SystemResetWarning,0832.5,4.99,000.00,030.4,029.0,000.0,038.7,032.0,26.2,0000.0,0005.10,0001.77,0001.03
2023-06-03 21:34:00,SystemResetWarning,0832.5,4.99,000.00,030.4,027.8,000.0,038.6,031.9,26.4,0000.0,0004.36,0001.72,0001.01
2023-06-03 21:35:00,SystemResetWarning,0832.6,5.00,000.00,030.3,026.4,000.0,038.5,031.7,26.8,0000.0,0004.15,0001.64,0000.99
2023-06-03 21:36:00,SystemResetWarning,0832.5,5.01,000.00,030.2,026.0,000.0,038.5,031.5,26.3,0000.0,0004.20,0001.62,0000.97
2023-06-03 21:37:00,SystemResetWarning,0832.5,5.02,000.00,030.1,026.2,000.0,038.5,031.5,27.4,0000.0,0004.06,0001.59,0000.95
2023-06-03 21:38:00,SystemResetWarning,0832.5,5.00,000.00,030.1,026.5,000.0,038.5,031.4,27.9,0000.0,0003.87,0001.50,0000.92
2023-06-03 21:39:00,SystemResetWarning,0832.5,5.00,000.00,030.0,026.9,000.0,038.5,031.5,28.7,0000.0,0003.76,0001.42,0000.89
2023-06-03 21:40:00,SystemResetWarning,0832.5,5.00,000.00,030.0,027.2,000.0,038.4,031.5,26.7,0000.0,0003.45,0001.36,0000.88
2023-06-03 21:41:00,SystemResetWarning,0832.5,5.00,000.00,030.0,027.5,000.0,038.4,031.5,27.1,0000.0,0002.65,0001.26,0000.86
2023-06-03 21:42:00,SystemResetWarning,0832.5,5.00,000.00,030.0,027.7,000.0,038.4,031.5,26.5,0000.0,0002.24,0001.18,0000.84
2023-06-03 21:43:00,SystemResetWarning,0832.5,4.99,000.00,030.0,027.9,000.0,038.4,031.5,26.6,0000.0,0002.05,0001.12,0000.83
2023-06-03 21:44:00,SystemResetWarning,0832.5,4.99,000.00,030.0,028.0,000.0,038.4,031.6,27.5,0000.0,0002.16,0001.12,0000.83
2023-06-03 21:45:00,SystemResetWarning,0832.4,5.00,000.00,030.0,028.1,000.0,038.4,031.6,27.2,0000.0,0002.10,0001.09,0000.82
2023-06-03 21:46:00,SystemResetWarning,0832.4,5.00,000.00,030.0,028.3,000.0,038.4,031.6,27.5,0000.0,0002.07,0001.07,0000.82
2023-06-03 21:47:00,SystemResetWarning,0832.4,5.00,000.00,030.0,028.3,000.0,038.4,031.6,27.1,0000.0,0001.95,0001.05,0000.83
2023-06-03 21:48:00,SystemResetWarning,0832.4,5.00,000.00,030.1,028.4,000.0,038.4,031.7,27.3,0000.0,0001.82,0001.03,0000.84
2023-06-03 21:49:00,SystemResetWarning,0832.4,5.00,000.00,030.1,028.5,000.0,038.4,031.7,27.1,0000.0,0001.86,0001.06,0000.85
2023-06-03 21:50:00,SystemResetWarning,0832.3,5.00,000.00,030.1,028.5,000.0,038.4,031.7,27.5,0000.0,0001.84,0001.07,0000.86
2023-06-03 21:51:00,SystemResetWarning,0832.3,5.00,000.00,030.1,028.6,000.0,038.4,031.7,28.0,0000.0,0001.88,0001.07,0000.86
2023-06-03 21:52:00,SystemResetWarning,0832.3,5.00,000.00,030.1,028.6,000.0,038.4,031.8,27.7,0000.0,0001.93,0001.09,0000.86
2023-06-03 21:53:00,SystemResetWarning,0832.3,4.99,000.00,030.1,028.6,000.0,038.4,031.8,27.1,0000.0,0001.95,0001.13,0000.87
2023-06-03 21:54:00,SystemResetWarning,0832.3,5.00,000.00,030.1,028.7,000.0,038.5,031.8,27.3,0000.0,0002.00,0001.15,0000.88
2023-06-03 21:55:00,SystemResetWarning,0832.3,4.99,000.00,030.1,028.7,000.0,038.5,031.8,27.4,0000.0,0001.86,0001.14,0000.89
2023-06-03 21:56:00,SystemResetWarning,0832.3,5.00,000.00,030.2,028.7,000.0,038.5,031.8,26.2,0000.0,0001.86,0001.17,0000.92
2023-06-03 21:57:00,SystemResetWarning,0832.3,4.99,000.00,030.2,028.7,000.0,038.5,031.8,25.3,0000.0,0001.92,0001.19,0000.92
2023-06-03 21:58:00,SystemResetWarning,0832.3,5.00,000.00,030.2,028.8,000.0,038.5,031.9,25.0,0000.0,0001.94,0001.21,0000.94
2023-06-03 21:59:00,SystemResetWarning,0832.3,5.00,000.00,030.2,028.8,000.0,038.5,031.9,26.5,0000.0,0001.91,0001.19,0000.95
